Rochester, NY

6:37 PM EDT on June 23, 2018 (GMT -0400)
Greater Rochester International

Weather History for KROC - October, 2017

Change the Weather History Date:

Sunday, October 22, 2017

  Actual Average Record
Temperature  
Mean Temperature 61 °F 48 °F  
Max Temperature 75 °F 57 °F 82 °F (1979)
Min Temperature 47 °F 40 °F 23 °F (1940)
Degree Days  
Heating Degree Days 4 17  
Month to date heating degree days 114 290  
Since 1 July heating degree days 233 471  
Cooling Degree Days 0 0  
Month to date cooling degree days 21 0  
Year to date cooling degree days 654 534  
Growing Degree Days 10 (Base 50)    
Moisture  
Dew Point 50 °F    
Average Humidity 70    
Maximum Humidity 93    
Minimum Humidity 46    
Precipitation  
Precipitation 0.00 in 0.08 in 1.07 in (1898)
Month to date precipitation 3.74 1.94  
Year to date precipitation 36.03 27.92  
Snow  
Snow 0.00 in 0.00 in T in (2010)
Month to date snowfall 0.0 0.0  
Since 1 July snowfall 0.0 0.0  
Since 1 September snowfall 0.0 0.0  
Snow Depth 0.00 in    
Sea Level Pressure  
Sea Level Pressure 30.25 in    
Wind  
Wind Speed 6 mph (SSW)    
Max Wind Speed 14 mph    
Max Gust Speed 16 mph    
Visibility 10 miles    
Events      
T = Trace of Precipitation, MM = Missing Value Source: NWS Daily Summary

Daily Weather History Graph

Daily Weather History Graph

Search for Another Location

Airport or City:

Astronomy

Oct. 22, 2017 Rise Set
Actual Time 7:33 AM EDT 6:16 PM EDT
Civil Twilight 7:04 AM EDT 6:45 PM EDT
Nautical Twilight 6:30 AM EDT 7:18 PM EDT
Astronomical Twilight 5:58 AM EDT 7:51 PM EDT
Moon 10:07 AM EDT (10/22) 8:20 PM EDT (10/22)
Length of Visible Light 11h 41m
Length of Day
10h 43m
Waxing Crescent, 8% of the Moon is Illuminated
Oct 22
Waxing Crescent
Oct 27
First Quarter
Nov 4
Full
Nov 10
Last Quarter
Nov 18
New

Hourly Weather History & Observations

Time (EDT) Temp. Dew Point Humidity Pressure Visibility Wind Dir Wind Speed Gust Speed Precip Events Conditions
12:54 AM 51.1 °F 46.9 °F 86% 30.27 in 10.0 mi SW 3.5 mph - N/A   Scattered Clouds
1:54 AM 48.9 °F 46.0 °F 90% 30.27 in 10.0 mi SSW 3.5 mph - N/A   Scattered Clouds
2:54 AM 50.0 °F 46.9 °F 89% 30.27 in 10.0 mi Calm Calm - N/A   Scattered Clouds
3:54 AM 48.0 °F 46.0 °F 93% 30.28 in 10.0 mi Calm Calm - N/A   Scattered Clouds
4:54 AM 48.9 °F 46.0 °F 90% 30.29 in 10.0 mi SW 4.6 mph - N/A   Scattered Clouds
5:54 AM 48.0 °F 45.0 °F 89% 30.31 in 10.0 mi WSW 3.5 mph - N/A   Scattered Clouds
6:54 AM 48.9 °F 45.0 °F 86% 30.32 in 10.0 mi WSW 5.8 mph - N/A   Scattered Clouds
7:54 AM 51.1 °F 45.0 °F 80% 30.31 in 10.0 mi SW 5.8 mph - N/A   Mostly Cloudy
8:54 AM 55.9 °F 48.9 °F 77% 30.31 in 10.0 mi SW 6.9 mph - N/A   Scattered Clouds
9:54 AM 62.1 °F 48.0 °F 60% 30.30 in 10.0 mi SW 6.9 mph - N/A   Mostly Cloudy
10:54 AM 66.0 °F 48.9 °F 54% 30.29 in 10.0 mi SW 10.4 mph - N/A   Mostly Cloudy
11:54 AM 69.1 °F 50.0 °F 51% 30.28 in 10.0 mi SW 10.4 mph - N/A   Mostly Cloudy
12:54 PM 72.0 °F 52.0 °F 49% 30.27 in 10.0 mi SSW 5.8 mph - N/A   Mostly Cloudy
1:54 PM 75.0 °F 53.1 °F 46% 30.25 in 10.0 mi SSW 6.9 mph - N/A   Mostly Cloudy
2:54 PM 73.9 °F 53.1 °F 48% 30.24 in 10.0 mi SSW 8.1 mph - N/A   Overcast
3:54 PM 73.9 °F 54.0 °F 50% 30.22 in 10.0 mi SE 4.6 mph - N/A   Overcast
4:54 PM 72.0 °F 55.9 °F 57% 30.20 in 10.0 mi ESE 8.1 mph - N/A   Overcast
5:54 PM 70.0 °F 55.9 °F 61% 30.19 in 10.0 mi ESE 5.8 mph - N/A   Overcast
6:54 PM 66.9 °F 55.9 °F 68% 30.19 in 10.0 mi SE 5.8 mph - N/A   Overcast
7:54 PM 66.9 °F 53.1 °F 61% 30.19 in 10.0 mi SSE 8.1 mph - N/A   Mostly Cloudy
8:54 PM 66.0 °F 53.1 °F 63% 30.21 in 10.0 mi SSE 6.9 mph - N/A   Mostly Cloudy
9:54 PM 64.9 °F 52.0 °F 63% 30.21 in 10.0 mi South 8.1 mph - N/A   Mostly Cloudy
10:54 PM 64.9 °F 53.1 °F 65% 30.19 in 10.0 mi SSE 8.1 mph - N/A   Mostly Cloudy
11:54 PM 64.9 °F 53.1 °F 65% 30.18 in 10.0 mi South 11.5 mph - N/A   Mostly Cloudy